Weather History for Buckeye, AZ

Change the Weather History Date:

Friday, May 3, 2013

  Actual Average (KGYR) Record (KGYR)
Temperature  
Mean Temperature 78 °F -  
Max Temperature 87 °F 88 °F 100 °F (2000)
Min Temperature 68 °F 60 °F 50 °F (1999)
Cooling Degree Days 12    
Growing Degree Days 28 (Base 50)    
Moisture  
Dew Point 16 °F    
Average Humidity 10    
Maximum Humidity 17    
Minimum Humidity 4    
Precipitation  
Precipitation 0.00 in - - ()
Sea Level Pressure  
Sea Level Pressure 29.92 in    
Wind  
Wind Speed 16 mph (East)    
Max Wind Speed 29 mph    
Max Gust Speed 36 mph    
Visibility 9 miles    
Events      
Averages and records for this station are not official NWS values.
T = Trace of Precipitation, MM = Missing Value Source: NWS Daily Summary

Daily Weather History Graph

Daily Weather History Graph

Search for Another Location

Airport:

Trip Planner

Search our weather history database for the weather conditions in past years. The results will help you decide how hot, cold, wet, or windy it might be!

Date:

Astronomy

May. 03, 2013 Rise Set
Actual Time 5:40 AM MST 7:15 PM MST
Civil Twilight 5:13 AM MST 7:42 PM MST
Nautical Twilight 4:41 AM MST 8:14 PM MST
Astronomical Twilight 4:08 AM MST 8:47 PM MST
Moon 1:48 AM MST (5/3) 1:31 PM MST (5/3)
Length of Visible Light 14h 28m
Length of Day
13h 35m
Waning Crescent, 36% of the Moon is Illuminated
May 3
Waning Crescent
May 9
New
May 17
First Quarter
May 24
Full
May 31
Last Quarter

Hourly Weather History & Observations

Time (MST) Temp. Dew Point Humidity Pressure Visibility Wind Dir Wind Speed Gust Speed Precip Events Conditions
12:15 AM 80.6 °F -0.4 °F 4% 30.00 in 10.0 mi NE 11.5 mph 17.3 mph N/A   Overcast
12:35 AM 82.4 °F -0.4 °F 4% 30.00 in 10.0 mi ENE 17.3 mph 29.9 mph N/A   Overcast
12:55 AM 80.6 °F -0.4 °F 4% 29.99 in 10.0 mi ENE 18.4 mph 27.6 mph N/A   Overcast
1:15 AM 80.6 °F 1.4 °F 5% 29.98 in 10.0 mi ENE 23.0 mph 31.1 mph N/A   Mostly Cloudy
1:35 AM 80.6 °F 3.2 °F 5% 29.98 in 9.0 mi ENE 26.5 mph 33.4 mph N/A   Scattered Clouds
1:55 AM 80.6 °F 5.0 °F 6% 29.98 in 8.0 mi ENE 25.3 mph 35.7 mph N/A   Scattered Clouds
2:15 AM 78.8 °F 5.0 °F 6% 29.98 in 7.0 mi East 25.3 mph 35.7 mph N/A   Scattered Clouds
2:35 AM 78.8 °F 6.8 °F 6% 29.98 in 9.0 mi ENE 28.8 mph 33.4 mph N/A   Scattered Clouds
2:55 AM 77.0 °F 5.0 °F 6% 29.98 in 10.0 mi East 26.5 mph 34.5 mph N/A   Scattered Clouds
3:15 AM 77.0 °F 8.6 °F 7% 29.97 in 9.0 mi East 25.3 mph 33.4 mph N/A   Mostly Cloudy
3:35 AM 77.0 °F 8.6 °F 7% 29.98 in 10.0 mi East 24.2 mph 33.4 mph N/A   Mostly Cloudy
3:55 AM 75.2 °F 10.4 °F 8% 29.98 in 10.0 mi East 24.2 mph 32.2 mph N/A   Mostly Cloudy
4:15 AM 75.2 °F 14.0 °F 10% 29.99 in 9.0 mi East 21.9 mph 35.7 mph N/A   Mostly Cloudy
4:35 AM 75.2 °F 15.8 °F 11% 29.98 in 8.0 mi ENE 28.8 mph 35.7 mph N/A   Scattered Clouds
4:55 AM 73.4 °F 15.8 °F 11% 29.99 in 9.0 mi East 21.9 mph 33.4 mph N/A   Scattered Clouds
5:15 AM 73.4 °F 15.8 °F 11% 29.99 in 10.0 mi East 24.2 mph 31.1 mph N/A   Scattered Clouds
5:35 AM 69.8 °F 17.6 °F 14% 30.00 in 10.0 mi ESE 18.4 mph 26.5 mph N/A   Clear
5:55 AM 69.8 °F 17.6 °F 14% 30.01 in 9.0 mi East 15.0 mph - N/A   Clear
6:15 AM 68.0 °F 17.6 °F 15% 30.01 in 9.0 mi East 15.0 mph 23.0 mph N/A   Clear
6:35 AM 69.8 °F 19.4 °F 15% 30.02 in 9.0 mi East 15.0 mph 25.3 mph N/A   Clear
6:55 AM 69.8 °F 23.0 °F 17% 30.02 in 8.0 mi East 19.6 mph 25.3 mph N/A   Clear
7:15 AM 71.6 °F 23.0 °F 16% 30.02 in 8.0 mi East 17.3 mph 24.2 mph N/A   Clear
7:35 AM 71.6 °F 23.0 °F 16% 30.02 in 7.0 mi East 23.0 mph 27.6 mph N/A   Clear
7:55 AM 71.6 °F 23.0 °F 16% 30.02 in 7.0 mi East 23.0 mph 28.8 mph N/A   Clear
8:15 AM 73.4 °F 23.0 °F 15% 30.02 in 8.0 mi East 19.6 mph 27.6 mph N/A   Clear
8:35 AM 73.4 °F 23.0 °F 15% 30.02 in 8.0 mi East 23.0 mph 27.6 mph N/A   Clear
8:55 AM 77.0 °F 21.2 °F 12% 30.03 in 8.0 mi East 19.6 mph 25.3 mph N/A   Clear
9:15 AM 77.0 °F 21.2 °F 12% 30.02 in 8.0 mi East 19.6 mph 27.6 mph N/A   Clear
9:35 AM 77.0 °F 21.2 °F 12% 30.02 in 8.0 mi East 17.3 mph 26.5 mph N/A   Clear
9:55 AM 77.0 °F 23.0 °F 13% 30.01 in 4.0 mi East 21.9 mph 29.9 mph N/A   Clear
10:15 AM 78.8 °F 21.2 °F 12% 30.00 in 7.0 mi East 21.9 mph 31.1 mph N/A   Clear
10:35 AM 80.6 °F 21.2 °F 11% 30.00 in 9.0 mi East 23.0 mph 28.8 mph N/A   Clear
10:55 AM 80.6 °F 21.2 °F 11% 30.00 in 9.0 mi East 19.6 mph 27.6 mph N/A   Clear
11:15 AM 80.6 °F 19.4 °F 10% 29.99 in 9.0 mi East 18.4 mph 26.5 mph N/A   Clear
11:35 AM 82.4 °F 19.4 °F 10% 29.99 in 9.0 mi East 17.3 mph 26.5 mph N/A   Clear
11:55 AM 82.4 °F 19.4 °F 10% 29.98 in 9.0 mi East 16.1 mph 23.0 mph N/A   Clear
12:15 PM 82.4 °F 19.4 °F 10% 29.97 in 9.0 mi East 9.2 mph 19.6 mph N/A   Clear
12:35 PM 84.2 °F 19.4 °F 9% 29.95 in 9.0 mi East 8.1 mph 21.9 mph N/A   Clear
12:55 PM 84.2 °F 19.4 °F 9% 29.94 in 9.0 mi East 13.8 mph 17.3 mph N/A   Clear
1:15 PM 84.2 °F 19.4 °F 9% 29.93 in 9.0 mi ENE 9.2 mph 18.4 mph N/A   Clear
1:35 PM 84.2 °F 19.4 °F 9% 29.92 in 9.0 mi East 9.2 mph - N/A   Clear
1:55 PM 86.0 °F 21.2 °F 9% 29.91 in 9.0 mi East 11.5 mph 16.1 mph N/A   Clear
2:15 PM 86.0 °F 21.2 °F 9% 29.90 in 10.0 mi East 11.5 mph - N/A   Clear
2:35 PM 86.0 °F 17.6 °F 8% 29.88 in 10.0 mi ESE 9.2 mph - N/A   Clear
2:55 PM 86.0 °F 19.4 °F 9% 29.87 in 9.0 mi East 6.9 mph - N/A   Clear
3:15 PM 86.0 °F 17.6 °F 8% 29.86 in 10.0 mi East 10.4 mph - N/A   Clear
3:35 PM 86.0 °F 17.6 °F 8% 29.85 in 10.0 mi SE 4.6 mph - N/A   Clear
3:55 PM 87.8 °F 17.6 °F 8% 29.83 in 9.0 mi East 9.2 mph - N/A   Clear
4:15 PM 86.0 °F 15.8 °F 7% 29.83 in 10.0 mi SE 5.8 mph - N/A   Clear
4:35 PM 86.0 °F 15.8 °F 7% 29.83 in 10.0 mi Calm Calm - N/A   Clear
5:15 PM 86.0 °F 19.4 °F 9% 29.82 in 10.0 mi SW 3.5 mph - N/A   Clear
5:35 PM 86.0 °F 15.8 °F 7% 29.81 in 10.0 mi ESE 3.5 mph - N/A   Clear
5:55 PM 86.0 °F 17.6 °F 8% 29.81 in 10.0 mi Calm Calm - N/A   Clear
6:15 PM 86.0 °F 15.8 °F 7% 29.81 in 9.0 mi SE 3.5 mph - N/A   Clear
6:35 PM 86.0 °F 17.6 °F 8% 29.80 in 10.0 mi Calm Calm - N/A   Clear
6:55 PM 84.2 °F 17.6 °F 8% 29.80 in 9.0 mi Calm Calm - N/A   Clear
7:15 PM 80.6 °F 21.2 °F 11% 29.80 in 7.0 mi Calm Calm - N/A   Clear
7:35 PM 80.6 °F 23.0 °F 12% 29.80 in 5.0 mi Calm Calm - N/A   Clear
7:55 PM 80.6 °F 21.2 °F 11% 29.79 in 10.0 mi Calm Calm - N/A   Clear
8:15 PM 80.6 °F 19.4 °F 10% 29.79 in 10.0 mi Calm Calm - N/A   Partly Cloudy
8:35 PM 77.0 °F 17.6 °F 11% 29.79 in 10.0 mi Calm Calm - N/A   Partly Cloudy
8:55 PM 75.2 °F 14.0 °F 10% 29.79 in 10.0 mi NE 3.5 mph - N/A   Partly Cloudy
9:15 PM 75.2 °F 14.0 °F 10% 29.80 in 10.0 mi ENE 5.8 mph - N/A   Clear
9:35 PM 73.4 °F 12.2 °F 10% 29.80 in 10.0 mi North 3.5 mph - N/A   Partly Cloudy
9:55 PM 69.8 °F 15.8 °F 13% 29.80 in 5.0 mi North 8.1 mph - N/A   Clear
10:15 PM 69.8 °F 12.2 °F 11% 29.80 in 10.0 mi North 6.9 mph - N/A   Clear
10:35 PM 68.0 °F 12.2 °F 12% 29.79 in 9.0 mi NW 6.9 mph - N/A   Clear
10:55 PM 68.0 °F 14.0 °F 12% 29.79 in 10.0 mi NNW 8.1 mph - N/A   Partly Cloudy
11:15 PM 68.0 °F 10.4 °F 11% 29.78 in 10.0 mi North 9.2 mph - N/A   Partly Cloudy
11:35 PM 68.0 °F 10.4 °F 11% 29.79 in 10.0 mi North 10.4 mph - N/A   Scattered Clouds
11:55 PM 69.8 °F 10.4 °F 10% 29.78 in 10.0 mi North 5.8 mph - N/A   Mostly Cloudy